Tracking 21076 objects as of 7-Aug-2020
HD Live streaming from Space Station
objects crossing your sky now

FREGAT DEB

Track FREGAT DEB now!
10-day predictions


NORAD ID: 45816
Int'l Code: 2011-037BA
Perigee: 449.3 km
Apogee: 3,694.5 km
Inclination: 51.5 °
Period: 128.7 minutes
Semi major axis: 8442 km
RCS: Unknown
Launch date: July 18, 2011
Source: Commonwealth of Independent States (former USSR) (CIS)
Launch site: TYURATAM MISSILE AND SPACE COMPLEX (TTMTR)

Note: This is SATELLITE DEBRIS
aabbcc
Your satellite tracking list
Your tracking list is empty




NASA's NSSDC Master Catalog

Two Line Element Set (TLE):
1 45816U 11037BA  20220.07772150  .00000358  00000-0  12024-3 0  9999
2 45816  51.4813 226.3073 1921858 160.5786 207.9855 11.19097919  7288
Source of the keplerian elements: AFSPC